Regional Weather Roundup
Issued by NWS

Home | Current Version | Previous Version | Text Only | Print | Product List | Glossary On
Versions: 1 2 3 4 5 6 7 8 9 10 11 12 13 14 15 16 17 18 19 20 21 22 23 24 25 26 27 28 29 30 31 32 33 34 35 36 37 38 39 40 41 42 43 44 45 46 47 48 49 50
000
ASUS43 KIND 212159
RWRIN

WEATHER ROUNDUP FOR INDIANA
NATIONAL WEATHER SERVICE INDIANAPOLIS IN
500 PM EST WED FEB 21 2018

NOTE: "FAIR" INDICATES FEW OR NO CLOUDS BELOW 12,000 FEET WITH NO
SIGNIFICANT WEATHER AND/OR OBSTRUCTIONS TO VISIBILITY.

* - STATION DOES NOT REPORT WEATHER SUCH AS PRECIPITATION OR FOG.

+ - STATION NOT QUALITY CONTROLLED BY THE NATIONAL WEATHER SERVICE.
    USE DATA WITH CAUTION...ESPECIALLY DEWPOINT AND RELATIVE
    HUMIDITY OBSERVATIONS.

INZ001>003-010>013-019-020-212300-
NORTHWEST INDIANA

CITY           SKY/WX    TMP DP  RH WIND       PRES   REMARKS
GARY /AIRPORT/ CLOUDY    32  25  74 N12G23    30.59S WCI  23
MICHIGAN CITY+ CLOUDY    30  27  86 NE10      30.57F WCI  21
MONTICELLO +   CLOUDY    34  29  84 N10       30.52S WCI  26
RENSSELAER +   PTSUNNY   32  27  80 N15       30.54S WCI  22

$$

LMZ046-743>745-212300-
SOUTHERN LAKE MICHIGAN

STATION/POSITION TIME  TEMP    WIND        PRES    WAVE
                       AIR SEA DIR/SP/G            HT
                 (UTC) (F)     (DEG/KT/KT) (MB)    (FT)
BURNS HARBOR     2140   30      30/ 17/ 20 1035.6S
MICHIGAN CITY    2130   29      10/ 18/ 21   N/A

$$

INZ004-005-014>016-021>024-212300-
NORTH CENTRAL INDIANA

CITY           SKY/WX    TMP DP  RH WIND       PRES   REMARKS
ELKHART        CLOUDY    32  27  80 N7        30.55R WCI  26
GOSHEN         CLOUDY    34  29  82 N7        30.54R WCI  28
SOUTH BEND     CLOUDY    31  25  78 N13       30.56R WCI  21
WARSAW +       CLOUDY    34  30  86 N9        30.53R WCI  26

$$

INZ006>009-017-018-025>027-212300-
NORTHEAST INDIANA

CITY           SKY/WX    TMP DP  RH WIND       PRES   REMARKS
AUBURN +       CLOUDY    36  32  87 N7        30.53R WCI  30
FORT WAYNE     CLOUDY    38  33  82 N12       30.52R WCI  30
KENDALLVILLE + CLOUDY    35  31  87 N9        30.53R WCI  27

$$

INZ028-029-035-036-043>045-051>053-212300-
WEST CENTRAL INDIANA

CITY           SKY/WX    TMP DP  RH WIND       PRES   REMARKS
CRAWFORDSVL +  CLOUDY    33  33  98 N10         N/A  WCI  25
GREENCASTLE +  CLOUDY    36  32  87 N9        30.49R WCI  29
LAFAYETTE      CLOUDY    34  30  85 NE10      30.52R WCI  26
TERRE HAUTE    CLOUDY    37  33  85 N9        30.49R WCI  30

$$

INZ030>032-037>040-046>048-054>057-064-065-212300-
CENTRAL INDIANA

CITY           SKY/WX    TMP DP  RH WIND       PRES   REMARKS
COLUMBUS       LGT RAIN  39  37  93 N14       30.45R WCI  31
INDIANAPOLIS   LGT RAIN  37  34  89 NE10      30.48R FOG     WCI  30
-EAGLE CREEK   LGT RAIN  38  33  82 N7        30.48R WCI  33
KOKOMO +       CLOUDY    36  32  85 N15       30.51R WCI  27
MT COMFORT *+  CLOUDY    37  37 100 NE13      30.48R WCI  29
SHELBYVILLE    LGT RAIN  40  35  83 N13       30.47R WCI  32

$$

INZ033-034-041-042-049-050-058-059-212300-
EAST CENTRAL INDIANA

CITY           SKY/WX    TMP DP  RH WIND       PRES   REMARKS
MUNCIE         CLOUDY    40  35  83 NE10      30.48R WCI  33
RICHMOND +     LGT RAIN  36  36 100 N10       30.43F WCI  28

$$

INZ060-061-067>069-081>083-085>088-212300-
SOUTHWEST INDIANA

CITY           SKY/WX    TMP DP  RH WIND       PRES   REMARKS
EVANSVILLE     RAIN      40  40 100 N12       30.46R WCI  33
HUNTINGBURG +  LGT RAIN  43  41  93 N9        30.44R

$$

INZ062-063-066-070>080-084-089>092-212300-
SOUTH CENTRAL AND SOUTHEAST INDIANA

CITY           SKY/WX    TMP DP  RH WIND       PRES   REMARKS
BLOOMINGTON    LGT RAIN  38  36  92 N13       30.47R WCI  30
FRENCH LICK *+ CLOUDY    43 N/A N/A N5        30.44R
SEYMOUR +      LGT RAIN  45  41  87 N9        30.44R

$$





USA.gov is the U.S. government's official web portal to all federal, state and local government web resources and services.